Home > Weather > Fort Bragg > Past weeks

Flag for U.S.A. Weather for the Past 2 Weeks in Fort Bragg, California, U.S.A.

Now
58 °F

Sunny.


Feels Like: 58 °F
Forecast: 53 / 62 °F
Wind: No wind

Location: Ukiah Municipal

Current Time: Feb 14, 2016 at 9:45:40 AM

Latest Report: Feb 14, 2016 at 8:56 AM


Visibility: 10 mi

Pressure: 30.36 "Hg

Humidity: 70%

Dew point: 48 °F

Location of Fort BraggLocation

Historic Weather in Fort Bragg — Graph

°F

Fort Bragg Temperature Yesterday

Maximum temperature yesterday: 71 °F (at 2:56 PM)
Minimum temperature yesterday: 42 °F (at 6:56 AM)
Average temperature yesterday: 54 °F

High & Low Weather Summary for the Past Weeks

 TemperatureHumidityPressure
High82 °F (Feb 8, 2:56 PM)100% (Feb 4, 7:56 AM)30.48 "Hg (Feb 4, 7:56 AM)
Low35 °F (Feb 1, 2:56 AM)20% (Feb 8, 2:56 PM)29.80 "Hg (Jan 31, 2:56 PM)
Average51 °F73%30.24 "Hg
* Reported Jan 30 7:56 AM — Feb 14 7:56 AM, Fort Bragg, Weather by CustomWeather, © 2016

Note: Actual official high and low records may vary slightly from our data, if they occured in-between our weather recording intervals... More about our weather records

Advertising

Fort Bragg Weather History for the Previous 24 Hours

 ConditionsComfort  
Time TempWeatherWind HumidityBarometerVisibility
7:56 AM
Sun, Feb 14
53 °FSunny.No wind77%30.32 "Hg10 mi
6:56 AM51 °FClear.No wind74%30.32 "Hg10 mi
5:56 AM50 °FClear.5 mph74%30.31 "Hg10 mi
4:56 AM53 °FClear.5 mph69%30.31 "Hg10 mi
3:56 AM54 °FClear.6 mph64%30.32 "Hg10 mi
2:56 AM56 °FClear.7 mph55%30.33 "Hg10 mi
1:56 AM51 °FClear.5 mph61%30.33 "Hg10 mi
12:56 AM52 °FClear.3 mph59%30.33 "Hg10 mi
11:56 PM
Sat, Feb 13
51 °FClear.No wind66%30.33 "Hg10 mi
10:56 PM53 °FClear.3 mph66%30.32 "Hg10 mi
9:56 PM53 °FClear.No wind69%30.33 "Hg10 mi
8:56 PM53 °FClear.No wind66%30.32 "Hg10 mi
7:56 PM57 °FClear.3 mph58%30.29 "Hg10 mi
6:56 PM59 °FClear.8 mph49%30.28 "Hg10 mi
5:56 PM63 °FClear.10 mph43%30.25 "Hg10 mi
4:56 PM66 °FSunny.8 mph36%30.23 "Hg10 mi
3:56 PM70 °FSunny.10 mph29%30.22 "Hg10 mi
2:56 PM71 °FSunny.7 mph34%30.21 "Hg10 mi
1:56 PM69 °FSunny.No wind44%30.23 "Hg10 mi
12:56 PM66 °FSunny.No wind47%30.25 "Hg10 mi
11:56 AM62 °FSunny.6 mph56%30.29 "Hg10 mi
10:56 AM58 °FSunny.5 mph65%30.32 "Hg10 mi
9:56 AM53 °FSunny.3 mph80%30.32 "Hg10 mi
Weather by CustomWeather, © 2016

See weather overviewHow to use our weather pages